User: anonymous   Login
Location: Laguna de la Cañada del Gallo
(40.3974°N, 5.2096°W)
Time: 13:13:06
(UTC+00:00)
Language:

Cosmos 2227 Rocket - Orbit

View from above orbital plane
View from above orbital plane
View from above satellite
View from above satellite

Ground track
Ground track

The orbit data is extracted from the following two-line orbital elements,

1 22285U 92093B   24171.66045023  .00000365  00000-0  21203-3 0  9998
2 22285  71.0214 242.5045 0004967 209.6479 150.4363 14.15264338624293
Epoch (UTC): 19 June 2024 15:51:02
Eccentricity: 0.0004967
inclination: 71.0214°
perigee height: 838 km
apogee height: 845 km
right ascension of ascending node: 242.5045°
argument of perigee: 209.6479°
revolutions per day: 14.15264338
mean anomaly at epoch: 150.4363°
orbit number at epoch: 62429

The dashed part of the orbit path shows where the satellite is in the earth's shadow,  

DLR